| time (UTC) | temp F | wind direction | speed MPH | gust MPH | rain 1hr in | rain 24hr in | rain mn in | humidity % | barometer mb |
| 20260504233712 | 65 | 253 | 4.0 | 7.0 | 0.00 | 0.00 | 0.00 | 45 | 1006.8 |
| 20260504233208 | 65 | 228 | 4.0 | 6.0 | 0.00 | 0.00 | 0.00 | 45 | 1006.9 |
| 20260504232705 | 66 | 230 | 2.0 | 5.0 | 0.00 | 0.00 | 0.00 | 44 | 1006.5 |
| 20260504232202 | 66 | 226 | 9.0 | 11.0 | 0.00 | 0.00 | 0.00 | 43 | 1006.6 |
| 20260504231659 | 67 | 234 | 7.0 | 7.0 | 0.00 | 0.00 | 0.00 | 42 | 1006.2 |
| 20260504231155 | 67 | 260 | 4.0 | 10.0 | 0.00 | 0.00 | 0.00 | 41 | 1006.3 |
| 20260504230651 | 67 | 313 | 2.0 | 9.0 | 0.00 | 0.00 | 0.00 | 41 | 1006.1 |
| 20260504230150 | 68 | 228 | 4.0 | 9.0 | 0.00 | 0.00 | 0.00 | 40 | 1006.2 |
| 20260504225648 | 68 | 189 | 5.0 | 11.0 | 0.00 | 0.00 | 0.00 | 39 | 1006.0 |
| 20260504225144 | 69 | 230 | 7.0 | 7.0 | 0.00 | 0.00 | 0.00 | 38 | 1006.0 |
| 20260504224641 | 70 | 253 | 4.0 | 10.0 | 0.00 | 0.00 | 0.00 | 36 | 1005.9 |
| 20260504224137 | 70 | 320 | 1.0 | 9.0 | 0.00 | 0.00 | 0.00 | 36 | 1005.9 |
| 20260504223635 | 71 | 262 | 5.0 | 10.0 | 0.00 | 0.00 | 0.00 | 33 | 1005.7 |
| 20260504223131 | 71 | 190 | 8.0 | 10.0 | 0.00 | 0.00 | 0.00 | 32 | 1005.6 |
| 20260504222628 | 71 | 210 | 4.0 | 5.0 | 0.00 | 0.00 | 0.00 | 33 | 1005.7 |
| 20260504222125 | 71 | 226 | 3.0 | 7.0 | 0.00 | 0.00 | 0.00 | 33 | 1005.7 |
| 20260504221622 | 71 | 38 | 0.0 | 7.0 | 0.00 | 0.00 | 0.00 | 34 | 1005.7 |
| 20260504221119 | 72 | 327 | 2.0 | 9.0 | 0.00 | 0.00 | 0.00 | 33 | 1005.7 |
| 20260504220615 | 72 | 26 | 1.0 | 6.0 | 0.00 | 0.00 | 0.00 | 33 | 1005.6 |
| 20260504220113 | 71 | 273 | 2.0 | 7.0 | 0.00 | 0.00 | 0.00 | 33 | 1005.7 |
| 20260504215609 | 71 | 259 | 4.0 | 9.0 | 0.00 | 0.00 | 0.00 | 33 | 1005.8 |
| 20260504215107 | 71 | 317 | 3.0 | 10.0 | 0.00 | 0.00 | 0.00 | 33 | 1005.8 |
| 20260504214602 | 72 | 209 | 0.0 | 6.0 | 0.00 | 0.00 | 0.00 | 32 | 1005.6 |
| 20260504214059 | 71 | 273 | 6.0 | 9.0 | 0.00 | 0.00 | 0.00 | 32 | 1005.6 |
| 20260504213555 | 72 | 278 | 0.0 | 9.0 | 0.00 | 0.00 | 0.00 | 32 | 1005.6 |
| 20260504213052 | 72 | 218 | 5.0 | 7.0 | 0.00 | 0.00 | 0.00 | 32 | 1005.8 |
| 20260504212548 | 72 | 3 | 2.0 | 7.0 | 0.00 | 0.00 | 0.00 | 32 | 1005.7 |
| 20260504212046 | 72 | 208 | 7.0 | 8.0 | 0.00 | 0.00 | 0.00 | 31 | 1005.7 |
| 20260504211543 | 73 | 280 | 4.0 | 10.0 | 0.00 | 0.00 | 0.00 | 32 | 1005.7 |
| 20260504211039 | 74 | 224 | 4.0 | 4.0 | 0.00 | 0.00 | 0.00 | 32 | 1005.5 |
| 20260504210536 | 73 | 157 | 0.0 | 8.0 | 0.00 | 0.00 | 0.00 | 31 | 1005.7 |
| 20260504210033 | 73 | 263 | 5.0 | 9.0 | 0.00 | 0.00 | 0.00 | 32 | 1005.6 |
| 20260504205531 | 72 | 208 | 5.0 | 10.0 | 0.00 | 0.00 | 0.00 | 32 | 1005.6 |
| 20260504205029 | 72 | 251 | 5.0 | 9.0 | 0.00 | 0.00 | 0.00 | 33 | 1005.6 |
| 20260504204527 | 71 | 245 | 5.0 | 13.0 | 0.00 | 0.00 | 0.00 | 33 | 1005.8 |
| 20260504204026 | 71 | 282 | 4.0 | 6.0 | 0.00 | 0.00 | 0.00 | 32 | 1005.7 |
| 20260504203523 | 70 | 184 | 9.0 | 10.0 | 0.00 | 0.00 | 0.00 | 32 | 1005.7 |
| 20260504203020 | 70 | 199 | 7.0 | 11.0 | 0.00 | 0.00 | 0.00 | 33 | 1005.7 |
| 20260504202516 | 71 | 198 | 2.0 | 7.0 | 0.00 | 0.00 | 0.00 | 32 | 1005.7 |
| 20260504202013 | 72 | 327 | 6.0 | 12.0 | 0.00 | 0.00 | 0.00 | 32 | 1005.8 |
| 20260504201510 | 71 | 225 | 13.0 | 14.0 | 0.00 | 0.00 | 0.00 | 31 | 1005.9 |
| 20260504201008 | 71 | 248 | 6.0 | 9.0 | 0.00 | 0.00 | 0.00 | 32 | 1005.8 |
| 20260504200504 | 72 | 293 | 2.0 | 8.0 | 0.00 | 0.00 | 0.00 | 32 | 1005.6 |
| 20260504200000 | 71 | 238 | 5.0 | 13.0 | 0.00 | 0.00 | 0.00 | 32 | 1005.9 |
| 20260504195456 | 72 | 195 | 4.0 | 12.0 | 0.00 | 0.00 | 0.00 | 31 | 1005.7 |
| 20260504194953 | 71 | 290 | 6.0 | 9.0 | 0.00 | 0.00 | 0.00 | 32 | 1005.9 |
| 20260504194449 | 71 | 185 | 4.0 | 11.0 | 0.00 | 0.00 | 0.00 | 31 | 1005.8 |
| 20260504193945 | 71 | 303 | 5.0 | 9.0 | 0.00 | 0.00 | 0.00 | 31 | 1005.8 |
| 20260504193443 | 71 | 278 | 4.0 | 9.0 | 0.00 | 0.00 | 0.00 | 30 | 1005.9 |
| 20260504192941 | 71 | 160 | 0.0 | 5.0 | 0.00 | 0.00 | 0.00 | 33 | 1005.7 |
| 20260504192438 | 71 | 278 | 4.0 | 11.0 | 0.00 | 0.00 | 0.00 | 33 | 1005.7 |
| 20260504191937 | 71 | 301 | 2.0 | 14.0 | 0.00 | 0.00 | 0.00 | 31 | 1005.8 |
| 20260504191435 | 71 | 303 | 11.0 | 14.0 | 0.00 | 0.00 | 0.00 | 30 | 1005.9 |
| 20260504190935 | 71 | 241 | 9.0 | 15.0 | 0.00 | 0.00 | 0.00 | 31 | 1006.1 |
| 20260504190431 | 71 | 323 | 4.0 | 10.0 | 0.00 | 0.00 | 0.00 | 31 | 1006.1 |
| 20260504185928 | 71 | 326 | 9.0 | 12.0 | 0.00 | 0.00 | 0.00 | 30 | 1006.0 |
| 20260504185426 | 72 | 267 | 6.0 | 6.0 | 0.00 | 0.00 | 0.00 | 31 | 1006.0 |
| 20260504184921 | 71 | 231 | 3.0 | 6.0 | 0.00 | 0.00 | 0.00 | 32 | 1006.2 |
| 20260504184417 | 70 | 8 | 1.0 | 11.0 | 0.00 | 0.00 | 0.00 | 31 | 1006.4 |
| 20260504183913 | 70 | 291 | 6.0 | 9.0 | 0.00 | 0.00 | 0.00 | 32 | 1006.6 |
| 20260504183411 | 71 | 165 | 7.0 | 9.0 | 0.00 | 0.00 | 0.00 | 31 | 1006.3 |
| 20260504182909 | 71 | 190 | 4.0 | 17.0 | 0.00 | 0.00 | 0.00 | 31 | 1006.4 |
| 20260504182405 | 70 | 198 | 7.0 | 22.0 | 0.00 | 0.00 | 0.00 | 30 | 1006.3 |
| 20260504181902 | 70 | 141 | 7.0 | 22.0 | 0.00 | 0.00 | 0.00 | 31 | 1006.5 |
| 20260504181359 | 71 | 293 | 6.0 | 8.0 | 0.00 | 0.00 | 0.00 | 31 | 1006.3 |
| 20260504180858 | 70 | 322 | 3.0 | 15.0 | 0.00 | 0.00 | 0.00 | 33 | 1006.3 |
| 20260504180356 | 70 | 220 | 4.0 | 9.0 | 0.00 | 0.00 | 0.00 | 32 | 1006.5 |
| 20260504175854 | 70 | 249 | 6.0 | 9.0 | 0.00 | 0.00 | 0.00 | 31 | 1006.6 |
| 20260504175351 | 70 | 240 | 3.0 | 14.0 | 0.00 | 0.00 | 0.00 | 32 | 1006.5 |
| 20260504174849 | 69 | 290 | 5.0 | 19.0 | 0.00 | 0.00 | 0.00 | 32 | 1006.6 |
| 20260504174346 | 69 | 243 | 9.0 | 15.0 | 0.00 | 0.00 | 0.00 | 32 | 1006.6 |
| 20260504173843 | 70 | 350 | 0.0 | 11.0 | 0.00 | 0.00 | 0.00 | 32 | 1006.6 |
| 20260504173340 | 69 | 181 | 3.0 | 10.0 | 0.00 | 0.00 | 0.00 | 33 | 1006.8 |
| 20260504172837 | 69 | 269 | 8.0 | 12.0 | 0.00 | 0.00 | 0.00 | 33 | 1006.7 |
| 20260504172333 | 68 | 258 | 8.0 | 16.0 | 0.00 | 0.00 | 0.00 | 33 | 1007.0 |
| 20260504171829 | 69 | 209 | 9.0 | 12.0 | 0.00 | 0.00 | 0.00 | 33 | 1007.0 |
| 20260504171326 | 69 | 241 | 7.0 | 11.0 | 0.00 | 0.00 | 0.00 | 33 | 1006.7 |
| 20260504170824 | 69 | 276 | 5.0 | 13.0 | 0.00 | 0.00 | 0.00 | 32 | 1007.0 |
| 20260504170320 | 68 | 131 | 5.0 | 9.0 | 0.00 | 0.00 | 0.00 | 36 | 1007.0 |
| 20260504160239 | 66 | 210 | 16.0 | 18.0 | 0.00 | 0.00 | 0.00 | 36 | 1007.8 |
| 20260504150704 | 67 | 201 | 8.0 | 9.0 | 0.00 | 0.00 | 0.00 | 35 | 1008.1 |
| 20260504150201 | 66 | 292 | 3.0 | 14.0 | 0.00 | 0.00 | 0.00 | 37 | 1008.3 |
| 20260504141130 | 64 | 266 | 2.0 | 6.0 | 0.00 | 0.00 | 0.00 | 39 | 1008.6 |
| 20260504140627 | 64 | 258 | 3.0 | 5.0 | 0.00 | 0.00 | 0.00 | 40 | 1008.4 |
| 20260504140122 | 63 | 215 | 5.0 | 5.0 | 0.00 | 0.00 | 0.00 | 41 | 1008.5 |
| 20260504130551 | 59 | 212 | 2.0 | 5.0 | 0.00 | 0.00 | 0.00 | 47 | 1009.5 |
| 20260504110438 | 50 | 219 | 1.0 | 5.0 | 0.00 | 0.00 | 0.00 | 53 | 1009.8 |
| 20260504100355 | 47 | 278 | 0.0 | 4.0 | 0.00 | 0.00 | 0.00 | 58 | 1009.6 |
| 20260504081748 | 46 | 217 | 3.0 | 3.0 | 0.00 | 0.00 | 0.00 | 60 | 1009.7 |
| 20260504081244 | 45 | 181 | 2.0 | 3.0 | 0.00 | 0.00 | 0.00 | 62 | 1009.6 |
| 20260504080741 | 46 | 89 | 0.0 | 2.0 | 0.00 | 0.00 | 0.00 | 63 | 1009.4 |
| 20260504080237 | 46 | 142 | 1.0 | 4.0 | 0.00 | 0.00 | 0.00 | 60 | 1009.4 |
| 20260504070205 | 45 | 187 | 2.0 | 3.0 | 0.00 | 0.00 | 0.00 | 62 | 1009.4 |
| 20260504060125 | 40 | 54 | 0.0 | 1.0 | 0.00 | 0.00 | 0.00 | 80 | 1009.4 |
| 20260504050554 | 36 | 93 | 0.0 | 0.0 | 0.00 | 0.00 | 0.00 | 85 | 1009.6 |
| 20260504045547 | 36 | 110 | 0.0 | 1.0 | 0.00 | 0.00 | 0.00 | 86 | 1009.4 |
| 20260504045042 | 35 | 3 | 0.0 | 3.0 | 0.00 | 0.00 | 0.00 | 85 | 1009.6 |
| 20260504044540 | 35 | 67 | 1.0 | 2.0 | 0.00 | 0.00 | 0.00 | 87 | 1009.7 |
| 20260504044037 | 34 | 70 | 1.0 | 2.0 | 0.00 | 0.00 | 0.00 | 87 | 1009.5 |
| 20260504043534 | 34 | 218 | 0.0 | 0.0 | 0.00 | 0.00 | 0.00 | 87 | 1009.6 |
| 20260504043032 | 34 | 55 | 0.0 | 0.0 | 0.00 | 0.00 | 0.00 | 86 | 1009.7 |
| 20260504042528 | 34 | 89 | 0.0 | 1.0 | 0.00 | 0.00 | 0.00 | 86 | 1009.7 |
| 20260504042025 | 34 | 32 | 0.0 | 2.0 | 0.00 | 0.00 | 0.00 | 87 | 1009.5 |
| 20260504041521 | 34 | 51 | 1.0 | 1.0 | 0.00 | 0.00 | 0.00 | 87 | 1009.4 |
| 20260504041017 | 34 | 89 | 0.0 | 1.0 | 0.00 | 0.00 | 0.00 | 87 | 1009.5 |
| 20260504040515 | 34 | 66 | 0.0 | 0.0 | 0.00 | 0.00 | 0.00 | 87 | 1009.5 |
| 20260504040012 | 34 | 131 | 0.0 | 1.0 | 0.00 | 0.00 | 0.00 | 86 | 1009.4 |
| 20260504035509 | 34 | 86 | 1.0 | 2.0 | 0.00 | 0.00 | 0.00 | 86 | 1009.5 |
| 20260504035005 | 34 | 66 | 1.0 | 1.0 | 0.00 | 0.00 | 0.00 | 85 | 1009.3 |
| 20260504034502 | 34 | 76 | 1.0 | 2.0 | 0.00 | 0.00 | 0.00 | 85 | 1009.4 |
| 20260504033959 | 35 | 66 | 0.0 | 1.0 | 0.00 | 0.00 | 0.00 | 84 | 1009.2 |
| 20260504033457 | 35 | 113 | 0.0 | 2.0 | 0.00 | 0.00 | 0.00 | 84 | 1009.3 |
| 20260504032954 | 35 | 80 | 0.0 | 1.0 | 0.00 | 0.00 | 0.00 | 83 | 1009.2 |
| 20260504032451 | 35 | 119 | 0.0 | 2.0 | 0.00 | 0.00 | 0.00 | 82 | 1009.4 |
| 20260504031948 | 35 | 89 | 0.0 | 1.0 | 0.00 | 0.00 | 0.00 | 83 | 1009.0 |
| 20260504031445 | 35 | 75 | 1.0 | 1.0 | 0.00 | 0.00 | 0.00 | 82 | 1009.1 |
| 20260504030941 | 35 | 89 | 0.0 | 1.0 | 0.00 | 0.00 | 0.00 | 81 | 1009.1 |
| 20260504030438 | 35 | 104 | 0.0 | 1.0 | 0.00 | 0.00 | 0.00 | 80 | 1009.1 |
| 20260504025934 | 35 | 62 | 0.0 | 0.0 | 0.00 | 0.00 | 0.00 | 80 | 1009.2 |
| 20260504025431 | 35 | 89 | 0.0 | 2.0 | 0.00 | 0.00 | 0.00 | 79 | 1009.0 |
| 20260504024928 | 36 | 105 | 0.0 | 1.0 | 0.00 | 0.00 | 0.00 | 80 | 1008.9 |
| 20260504024425 | 36 | 103 | 0.0 | 1.0 | 0.00 | 0.00 | 0.00 | 79 | 1008.9 |
| 20260504023922 | 36 | 119 | 0.0 | 1.0 | 0.00 | 0.00 | 0.00 | 77 | 1008.9 |
| 20260504023419 | 36 | 66 | 0.0 | 2.0 | 0.00 | 0.00 | 0.00 | 76 | 1009.0 |
| 20260504022914 | 37 | 56 | 1.0 | 2.0 | 0.00 | 0.00 | 0.00 | 75 | 1008.8 |
| 20260504022411 | 37 | 56 | 0.0 | 2.0 | 0.00 | 0.00 | 0.00 | 75 | 1008.7 |
| 20260504021908 | 37 | 66 | 0.0 | 1.0 | 0.00 | 0.00 | 0.00 | 76 | 1009.0 |
| 20260504021405 | 37 | 69 | 1.0 | 2.0 | 0.00 | 0.00 | 0.00 | 75 | 1009.0 |
| 20260504020902 | 38 | 87 | 1.0 | 1.0 | 0.00 | 0.00 | 0.00 | 74 | 1009.0 |
| 20260504020359 | 38 | 113 | 0.0 | 0.0 | 0.00 | 0.00 | 0.00 | 73 | 1008.9 |
| 20260504015854 | 39 | 77 | 1.0 | 2.0 | 0.00 | 0.00 | 0.00 | 73 | 1008.9 |
| 20260504015351 | 39 | 147 | 0.0 | 1.0 | 0.00 | 0.00 | 0.00 | 71 | 1008.8 |
| 20260504014847 | 39 | 107 | 0.0 | 1.0 | 0.00 | 0.00 | 0.00 | 69 | 1008.7 |
| 20260504014343 | 39 | 89 | 0.0 | 0.0 | 0.00 | 0.00 | 0.00 | 70 | 1008.8 |
| 20260504013841 | 40 | 44 | 0.0 | 1.0 | 0.00 | 0.00 | 0.00 | 66 | 1008.6 |
| 20260504013339 | 40 | 87 | 1.0 | 1.0 | 0.00 | 0.00 | 0.00 | 64 | 1008.5 |
| 20260504012835 | 41 | 109 | 0.0 | 1.0 | 0.00 | 0.00 | 0.00 | 66 | 1008.6 |
| 20260504012333 | 41 | 124 | 0.0 | 0.0 | 0.00 | 0.00 | 0.00 | 66 | 1008.6 |
| 20260504011830 | 42 | 62 | 2.0 | 2.0 | 0.00 | 0.00 | 0.00 | 59 | 1008.5 |
| 20260504011327 | 42 | 62 | 2.0 | 2.0 | 0.00 | 0.00 | 0.00 | 59 | 1008.4 |
| 20260504010822 | 42 | 62 | 2.0 | 2.0 | 0.00 | 0.00 | 0.00 | 59 | 1008.4 |
| 20260504010318 | 42 | 62 | 2.0 | 2.0 | 0.00 | 0.00 | 0.00 | 59 | 1008.3 |
| 20260504005815 | 42 | 66 | 1.0 | 1.0 | 0.00 | 0.00 | 0.00 | 59 | 1008.2 |
| 20260504005312 | 43 | 70 | 0.0 | 2.0 | 0.00 | 0.00 | 0.00 | 60 | 1008.1 |
| 20260504004810 | 43 | 89 | 0.0 | 1.0 | 0.00 | 0.00 | 0.00 | 58 | 1008.1 |
| 20260504004307 | 44 | 89 | 0.0 | 1.0 | 0.00 | 0.00 | 0.00 | 57 | 1008.0 |
| 20260504003803 | 44 | 60 | 0.0 | 1.0 | 0.00 | 0.00 | 0.00 | 57 | 1008.1 |
| 20260504003300 | 44 | 118 | 0.0 | 1.0 | 0.00 | 0.00 | 0.00 | 55 | 1008.1 |
| 20260504002757 | 45 | 119 | 0.0 | 1.0 | 0.00 | 0.00 | 0.00 | 54 | 1007.9 |
| 20260504002254 | 46 | 80 | 0.0 | 2.0 | 0.00 | 0.00 | 0.00 | 55 | 1007.8 |
| 20260504001752 | 46 | 109 | 1.0 | 1.0 | 0.00 | 0.00 | 0.00 | 53 | 1007.9 |
| 20260504001248 | 46 | 77 | 0.0 | 1.0 | 0.00 | 0.00 | 0.00 | 52 | 1007.8 |
| 20260504000745 | 47 | 76 | 0.0 | 2.0 | 0.00 | 0.00 | 0.00 | 51 | 1007.6 |
| 20260504000242 | 48 | 113 | 0.0 | 0.0 | 0.00 | 0.00 | 0.00 | 51 | 1007.8 |
| 20260503235740 | 48 | 336 | 0.0 | 2.0 | 0.00 | 0.00 | 0.00 | 47 | 1007.7 |
| 20260503235237 | 48 | 58 | 2.0 | 2.0 | 0.00 | 0.00 | 0.00 | 47 | 1007.5 |
| 20260503234735 | 49 | 60 | 0.0 | 2.0 | 0.00 | 0.00 | 0.00 | 47 | 1007.5 |
| 20260503234233 | 50 | 302 | 0.0 | 3.0 | 0.00 | 0.00 | 0.00 | 44 | 1007.5 |